Regional Weather Roundup
Issued by NWS

Home | Current Version | Previous Version | Text Only | Print | Product List | Glossary Off
Versions: 1 2 3 4 5 6 7 8 9 10 11 12 13 14 15 16 17 18 19 20 21 22 23 24 25 26 27 28 29 30 31 32 33 34 35 36 37 38 39 40 41 42 43 44 45 46 47 48 49 50

000
ASUS43 KLOT 200958
RWRIL

ILLINOIS REGIONAL WEATHER ROUNDUP
NATIONAL WEATHER SERVICE CHICAGO/ROMEOVILLE IL
500 AM CDT SUN APR 20 2014

NOTE: "FAIR" INDICATES FEW OR NO CLOUDS BELOW 12,000 FEET WITH NO
SIGNIFICANT WEATHER AND/OR OBSTRUCTIONS TO VISIBILITY.

* THESE STATIONS ARE NOT UNDER NWS QUALITY CONTROL. THEY ALSO MAY NOT
  REPORT WEATHER SUCH AS PRECIPITATION OR FOG.

ILZ001-002-007-009-015-016-024-201100-
NORTHWEST ILLINOIS

CITY           SKY/WX    TMP DP  RH WIND       PRES   REMARKS
MOLINE         MOCLDY    52  37  56 S8        30.15R
$$

ILZ003-004-008-010-011-017-018-201100-
NORTH CENTRAL ILLINOIS

CITY           SKY/WX    TMP DP  RH WIND       PRES   REMARKS
ROCKFORD       NOT AVBL
$$

ILZ005-006-012>014-019>023-201100-
NORTHEAST ILLINOIS

CITY           SKY/WX    TMP DP  RH WIND       PRES   REMARKS
CHICAGO-OHARE  PTCLDY    45  28  51 S7        30.21S
CHICAGO-MIDWAY PTCLDY    48  28  46 S8        30.21F
AURORA         CLEAR     43  32  65 SE8       30.21S
WAUKEGAN       CLEAR     42  35  76 SE6       30.19F
DUPAGE AIRPORT CLEAR     43  32  65 S3        30.20S
WHEELING       CLEAR     42  32  67 S6        30.21F
NORTHERLY ISL    N/A     48  33  56 SE5         N/A
$$

LMZ740>746-201100-
SOUTHERN LAKE MICHIGAN

STATION/POSITION SKY/WX   TEMP    WIND        PRES    VSBY  WAVE
                          AIR SEA DIR/SP/G                  HT/PER
                          (F)     (DEG/KT/KT) (MB)    (MI)  (FT/S)
WAUKEGAN HARBOR            43     170/  9/ 10 1024.4F
HARRISON CRIB              47     150/ 19/ 22   N/A
BURNHAM HARBOR             47     130/  4/  5   N/A
CALUMET HARBOR             47     150/  8/ 12 1024.0F
MICHIGAN CITY              46     120/ 14/ 17   N/A
$$

ILZ025>027-034>036-040-047-049-050-058-095>099-201100-
WEST-CENTRAL ILLINOIS

CITY           SKY/WX    TMP DP  RH WIND       PRES   REMARKS
$$

ILZ028>032-037-038-041>044-048-051>054-059>061-201100-
CENTRAL ILLINOIS

CITY           SKY/WX    TMP DP  RH WIND       PRES   REMARKS
PEORIA         NOT AVBL
SPRINGFIELD    MOCLDY    51  38  60 SE7       30.19S
TAYLORVILLE    NOT AVBL
$$

ILZ033-039-045-046-055>057-062-063-201100-
EAST-CENTRAL ILLINOIS

CITY           SKY/WX    TMP DP  RH WIND       PRES   REMARKS
CHAMPAIGN      CLEAR     43  37  79 E9        30.22S
MATTOON        CLEAR     51  37  58 SE7       30.21S
$$

ILZ079-100>102-201100-
SOUTHWEST ILLINOIS

CITY           SKY/WX    TMP DP  RH WIND       PRES   REMARKS
CAHOKIA*       CLEAR     47  44  90 SE5       30.19S
$$

ILZ064>066-069>071-074>076-080>082-084>086-088>090-092>094-201100-
SOUTH-CENTRAL ILLINOIS

CITY           SKY/WX    TMP DP  RH WIND       PRES   REMARKS
CARBONDALE     CLEAR     45  43  93 CALM      30.19S
$$

ILZ067-068-072-073-078-083-087-091-201100-
SOUTHEAST ILLINOIS

CITY           SKY/WX    TMP DP  RH WIND       PRES   REMARKS
$$

ABBREVIATIONS USED IN REMARKS
   TC - TEMPERATURE IN CELSIUS
  WCI - WIND CHILL INDEX
   HX - HEAT INDEX
  VSB - VISIBILITY
$$




USA.gov is the U.S. government's official web portal to all federal, state and local government web resources and services.